Weather reports worldwide

Advertisment
Ronchi Dei Legionari, Italy (16108): temperature & dewpoint: 10.08.2018 13:00:00 - 16.08.2018 13:00:00 (CEST)Ronchi Dei Legionari, Italy (16108): wind speed: 10.08.2018 13:00:00 - 16.08.2018 13:00:00 (CEST)Ronchi Dei Legionari, Italy (16108): wind direction: 10.08.2018 13:00:00 - 16.08.2018 13:00:00 (CEST)Ronchi Dei Legionari, Italy (16108): reduced air pressure: 10.08.2018 13:00:00 - 16.08.2018 13:00:00 (CEST)Ronchi Dei Legionari, Italy (16108): visibility: 10.08.2018 13:00:00 - 16.08.2018 13:00:00 (CEST)Ronchi Dei Legionari, Italy (16108): precipitation: 10.08.2018 13:00:00 - 16.08.2018 13:00:00 (CEST)
Date & Time tt [°C] td [°C] ff [km/h] ff [kn] dd ppp [hPa] vv [km] rr [mm]
16.08.2018 13:00:00 29,0 12,0 18 10 E - 10 -
16.08.2018 12:00:00 29,0 12,0 24 13 E - 10 -
16.08.2018 11:00:00 28,3 12,0 15 8 ENE 1016,8 10 0,0
16.08.2018 10:00:00 27,0 14,0 9 5 NE - 10 -
16.08.2018 09:00:00 24,0 16,0 4 2 - - 10 -
16.08.2018 08:00:00 22,8 15,0 4 2 - 1016,8 10 -
16.08.2018 07:00:00 20,0 15,0 9 5 NNE - 10 -
16.08.2018 06:00:00 18,0 15,0 4 2 - - 10 -
16.08.2018 05:00:00 18,9 14,8 8 4 NNE 1016,8 10 0,0
16.08.2018 04:00:00 19,0 15,0 5 3 N - 10 -
16.08.2018 03:00:00 20,0 15,0 2 1 - - 10 -
16.08.2018 02:00:00 21,1 15,0 9 5 NE 1017,3 10 -
16.08.2018 01:00:00 20,0 15,0 9 5 N - 10 -
16.08.2018 00:00:00 23,0 14,0 11 6 E - 10 -
15.08.2018 23:00:00 23,9 14,1 9 5 E 1016,7 10 0,0
15.08.2018 22:00:00 23,0 15,0 4 2 - - 10 -
15.08.2018 21:00:00 25,0 15,0 8 4 E - 10 -
15.08.2018 20:00:00 26,7 16,0 2 1 - 1015,1 10 -
15.08.2018 19:00:00 28,0 16,0 5 3 E - 10 -
15.08.2018 18:00:00 28,0 14,0 13 7 E - 10 -
15.08.2018 17:00:00 28,6 14,6 8 4 E 1015,0 10 0,0
15.08.2018 16:00:00 29,0 16,0 5 3 NNE - 10 -
15.08.2018 15:00:00 30,0 14,0 5 3 NNW - 10 -
15.08.2018 14:00:00 29,5 16,1 8 4 NW 1015,3 10 -
15.08.2018 13:00:00 28,0 16,0 9 5 SSW - 10 -
15.08.2018 12:00:00 28,0 17,0 5 3 - - 10 -
15.08.2018 11:00:00 26,7 15,9 4 2 - 1015,8 10 0,0
15.08.2018 10:00:00 25,0 18,0 8 4 NNE - 10 -
15.08.2018 09:00:00 22,0 18,0 9 5 N - 10 -
15.08.2018 08:00:00 20,7 17,7 8 4 N 1015,1 10 -
15.08.2018 07:00:00 20,0 19,0 4 2 - - 10 -
15.08.2018 06:00:00 20,0 18,0 9 5 N - 10 -
15.08.2018 05:00:00 19,9 18,4 8 4 N 1014,5 10 0,0
15.08.2018 04:00:00 20,0 19,0 8 4 N - 10 -
15.08.2018 03:00:00 20,0 19,0 9 5 N - 10 -
15.08.2018 02:00:00 20,0 19,4 5 3 N 1014,9 10 -
15.08.2018 01:00:00 20,0 19,0 4 2 - - 10 -
15.08.2018 00:00:00 20,0 19,0 5 3 NNW - 10 -
14.08.2018 23:00:00 20,0 19,1 8 4 NW 1014,1 10 0,0
14.08.2018 22:00:00 21,0 19,0 11 6 NE - 10 -
14.08.2018 21:00:00 20,0 19,0 13 7 NNW - 10 -
14.08.2018 20:00:00 20,5 19,3 13 7 NNE 1013,0 10 -
14.08.2018 19:00:00 21,0 20,0 13 7 NNE - 10 -
14.08.2018 18:00:00 20,0 19,0 28 15 E - 3,0 -
14.08.2018 17:00:00 25,7 20,8 29 16 SE 1010,8 10 0,0
14.08.2018 16:00:00 28,0 20,0 11 6 WSW - 10 -
14.08.2018 15:00:00 28,0 19,0 8 4 SE - 10 -
14.08.2018 14:00:00 28,2 19,0 5 3 - 1011,5 10 -
14.08.2018 13:00:00 27,0 18,0 4 2 - - 10 -
14.08.2018 12:00:00 26,0 18,0 5 3 - - 10 -
14.08.2018 11:00:00 24,8 19,7 5 3 ENE 1012,0 10 0,0
14.08.2018 10:00:00 23,0 20,0 5 3 N - 10 -
14.08.2018 09:00:00 21,0 20,0 5 3 N - 10 -
14.08.2018 08:00:00 20,5 19,3 4 2 - 1011,6 10 -
14.08.2018 07:00:00 20,0 20,0 5 3 NE - 9 -
14.08.2018 06:00:00 20,0 20,0 5 3 NNE - 10 -
14.08.2018 05:00:00 20,1 19,5 8 4 NNW 1010,8 10 0,0
14.08.2018 04:00:00 21,0 20,0 5 3 S - 7 -
14.08.2018 03:00:00 20,0 19,0 4 2 - - 10 -
14.08.2018 02:00:00 20,3 19,0 4 2 - 1010,2 10 -
14.08.2018 01:00:00 20,0 19,0 4 2 - - 10 -
14.08.2018 00:00:00 22,0 18,0 5 3 WNW - 10 -
13.08.2018 23:00:00 22,7 17,2 13 7 NNW 1010,9 10 0,0
13.08.2018 22:00:00 23,0 19,0 8 4 WNW - 10 -
13.08.2018 21:00:00 24,0 19,0 2 1 - - 10 -
13.08.2018 20:00:00 25,7 18,0 5 3 NE 1009,7 10 -
13.08.2018 19:00:00 28,0 21,0 11 6 W - 10 -
13.08.2018 18:00:00 29,0 20,0 18 10 SW - 10 -
13.08.2018 17:00:00 30,3 19,4 11 6 S 1010,0 10 0,0
13.08.2018 16:00:00 30,0 20,0 15 8 SSW - 10 -
13.08.2018 15:00:00 31,0 19,0 13 7 SSW - 10 -
13.08.2018 14:00:00 30,1 20,6 11 6 S 1012,2 10 -
13.08.2018 13:00:00 30,0 20,0 13 7 SSW - 10 -
13.08.2018 12:00:00 30,0 20,0 9 5 S - 10 -
13.08.2018 11:00:00 28,5 20,2 5 3 - 1013,4 10 0,0
13.08.2018 10:00:00 27,0 19,0 5 3 SSW - 10 -
13.08.2018 09:00:00 25,0 19,0 4 2 - - 10 -
13.08.2018 08:00:00 22,2 17,9 4 2 - 1013,5 10 -
13.08.2018 07:00:00 20,0 17,0 8 4 E - 10 -
13.08.2018 06:00:00 19,0 17,0 4 2 NE - 10 -
13.08.2018 05:00:00 19,6 17,0 4 2 - 1013,3 10 0,0
13.08.2018 04:00:00 20,0 17,0 5 3 E - 10 -
13.08.2018 03:00:00 20,0 18,0 4 2 - - 10 -
13.08.2018 02:00:00 21,6 17,6 5 3 E 1014,6 10 -
13.08.2018 01:00:00 22,0 19,0 4 2 N - 10 -
13.08.2018 00:00:00 23,0 19,0 5 3 E - 10 -
12.08.2018 23:00:00 23,8 19,1 9 5 ESE 1014,7 10 0,0
12.08.2018 22:00:00 25,0 20,0 9 5 E - 10 -
12.08.2018 21:00:00 27,0 20,0 4 2 S - 10 -
12.08.2018 20:00:00 28,7 17,9 9 5 SW 1014,4 10 -
12.08.2018 19:00:00 31,0 16,0 15 8 WSW - 10 -
12.08.2018 18:00:00 31,0 15,0 16 9 WSW - 10 -
12.08.2018 17:00:00 31,8 14,7 16 9 WSW 1014,9 10 0,0
12.08.2018 16:00:00 33,0 15,0 11 6 S - 10 -
12.08.2018 15:00:00 32,0 15,0 11 6 SSW - 10 -
12.08.2018 14:00:00 31,7 14,5 11 6 S 1017,1 10 -
12.08.2018 13:00:00 31,0 14,0 15 8 E - 10 -
12.08.2018 12:00:00 30,0 15,0 22 12 ESE - 10 -
12.08.2018 11:00:00 29,9 14,6 22 12 E 1018,1 10 0,0
12.08.2018 10:00:00 28,0 14,0 24 13 E - 10 -
12.08.2018 09:00:00 27,0 14,0 16 9 E - 10 -
12.08.2018 08:00:00 26,2 13,9 16 9 E 1018,2 10 -
12.08.2018 07:00:00 25,0 14,0 16 9 E - 10 -
12.08.2018 06:00:00 25,0 15,0 13 7 ENE - 10 -
12.08.2018 05:00:00 24,7 16,5 11 6 ENE 1018,0 10 0,0
12.08.2018 04:00:00 25,0 17,0 9 5 ENE - 10 -
12.08.2018 03:00:00 26,0 17,0 11 6 E - 10 -
12.08.2018 02:00:00 26,2 16,5 21 11 E 1017,8 10 -
12.08.2018 01:00:00 26,0 17,0 21 11 E - 10 -
12.08.2018 00:00:00 26,0 17,0 15 8 E - 10 -
11.08.2018 23:00:00 25,3 17,4 11 6 NNE 1017,8 10 0,0
11.08.2018 22:00:00 25,0 18,0 9 5 NNE - 10 -
11.08.2018 21:00:00 26,0 18,0 9 5 ENE - 10 -
11.08.2018 20:00:00 26,4 17,8 15 8 E 1017,0 10 -
11.08.2018 19:00:00 28,0 16,0 16 9 E - 10 -
11.08.2018 18:00:00 28,0 17,0 18 10 NE - 10 -
11.08.2018 17:00:00 31,3 17,2 16 9 WSW 1015,8 10 0,0
11.08.2018 16:00:00 33,0 16,0 11 6 S - 10 -
11.08.2018 15:00:00 33,0 16,0 9 5 SW - 10 -
11.08.2018 14:00:00 32,7 16,7 9 5 S 1016,9 10 -
11.08.2018 13:00:00 32,0 16,0 11 6 SSE - 10 -
11.08.2018 12:00:00 31,0 17,0 15 8 ESE - 10 -
11.08.2018 11:00:00 30,4 17,2 16 9 E 1018,1 10 0,0
11.08.2018 10:00:00 29,0 18,0 9 5 E - 10 -
11.08.2018 09:00:00 27,0 19,0 4 2 - - 10 -
11.08.2018 08:00:00 24,4 19,4 4 2 - 1018,0 10 -
11.08.2018 07:00:00 21,0 18,0 4 2 - - 10 -
11.08.2018 06:00:00 20,0 18,0 4 2 NW - 10 -
11.08.2018 05:00:00 21,3 17,2 4 2 - 1017,6 10 0,0
11.08.2018 04:00:00 22,0 18,0 8 4 E - 10 -
11.08.2018 03:00:00 22,0 19,0 5 3 E - 10 -
11.08.2018 02:00:00 21,7 19,0 4 2 - 1018,2 10 -
11.08.2018 01:00:00 23,0 19,0 8 4 E - 10 -
11.08.2018 00:00:00 23,0 21,0 4 2 ENE - 10 -
10.08.2018 23:00:00 23,4 20,8 5 3 NE 1018,1 10 0,0
10.08.2018 22:00:00 26,0 21,0 5 3 E - 10 -
10.08.2018 21:00:00 27,0 21,0 5 3 SSW - 10 -
10.08.2018 20:00:00 29,0 20,5 8 4 S 1017,2 10 -
10.08.2018 19:00:00 30,0 20,0 13 7 SSW - 10 -
10.08.2018 18:00:00 32,0 19,0 11 6 WSW - 10 -
10.08.2018 17:00:00 32,1 19,0 9 5 SW 1017,5 10 0,0
10.08.2018 16:00:00 32,0 18,0 11 6 SW - 10 -
10.08.2018 15:00:00 31,0 20,0 13 7 W - 10 -
10.08.2018 14:00:00 31,0 19,2 9 5 SSW 1018,7 10 -
10.08.2018 13:00:00 31,0 18,0 9 5 - - 10 -

tt = temperature
td = dewpoint
ff = wind speed
dd = wind direction
ppp = reduced air pressure
vv = visibility
rr = precipitation

Next stations